• In Czech Republic
  • List of Countries
  • For 7 days
  • Water Temperature
  • Satellite Maps
  • Weather Map
  • Weather Widgets
  • user-avatar
    Login

    Hourly Weather Bexhill

    Today, 23 November, Thursday

    Time Temperature Precipitation Wind Pressure Humidity
    00:00 +14°C° 0.1 mm 16 mps 741 mmHg 65%
    01:00 +14°C° 0.3 mm 16 mps 740 mmHg 68%
    02:00 +14°C° 0.3 mm 16 mps 740 mmHg 72%
    03:00 +13°C° 0.3 mm 16 mps 739 mmHg 76%
    04:00 +13°C° 0.8 mm 15 mps 740 mmHg 78%
    05:00 +13°C° 0.8 mm 14 mps 740 mmHg 81%
    06:00 +13°C° 0.8 mm 13 mps 740 mmHg 83%
    07:00 +12°C° 0.3 mm 12 mps 741 mmHg 81%
    08:00 +11°C° 0.3 mm 11 mps 743 mmHg 79%
    09:00 +9°C° 0.3 mm 10 mps 744 mmHg 77%
    10:00 +9°C° 0 mm 11 mps 745 mmHg 72%
    11:00 +9°C° 0 mm 11 mps 746 mmHg 67%
    12:00 +9°C° 0 mm 11 mps 747 mmHg 61%
    13:00 +9°C° 0 mm 11 mps 748 mmHg 61%
    14:00 +9°C° 0 mm 10 mps 749 mmHg 62%
    15:00 +8°C° 0 mm 10 mps 750 mmHg 62%
    16:00 +8°C° 0 mm 9 mps 750 mmHg 62%
    17:00 +7°C° 0 mm 9 mps 751 mmHg 63%
    18:00 +7°C° 0 mm 8 mps 752 mmHg 63%
    19:00 +8°C° 0 mm 7 mps 752 mmHg 64%
    20:00 +8°C° 0 mm 6 mps 752 mmHg 66%
    21:00 +8°C° 0 mm 5 mps 752 mmHg 67%
    22:00 +7°C° 1.1 mm 4 mps 751 mmHg 73%
    23:00 +8°C° 1.1 mm 3 mps 751 mmHg 80%

    Tomorrow, 24 November, Friday

    Time Temperature Precipitation Wind Pressure Humidity
    00:00 +7°C° 1.1 mm 2 mps 750 mmHg 86%
    01:00 +6°C° 1.7 mm 4 mps 750 mmHg 85%
    02:00 +5°C° 1.7 mm 6 mps 750 mmHg 83%
    03:00 +5°C° 1.7 mm 8 mps 749 mmHg 82%
    04:00 +4°C° 0.4 mm 8 mps 750 mmHg 81%
    05:00 +4°C° 0.4 mm 7 mps 750 mmHg 79%
    06:00 +4°C° 0.4 mm 7 mps 750 mmHg 78%
    07:00 +4°C° 0.1 mm 7 mps 751 mmHg 77%
    08:00 +4°C° 0.1 mm 6 mps 753 mmHg 75%
    09:00 +4°C° 0.1 mm 6 mps 754 mmHg 74%
    10:00 +6°C° 0 mm 5 mps 755 mmHg 71%
    11:00 +6°C° 0 mm 5 mps 755 mmHg 68%
    12:00 +7°C° 0 mm 5 mps 756 mmHg 65%
    13:00 +7°C° 0 mm 5 mps 756 mmHg 66%
    14:00 +6°C° 0 mm 4 mps 757 mmHg 66%
    15:00 +7°C° 0 mm 3 mps 757 mmHg 67%
    16:00 +5°C° 0 mm 3 mps 757 mmHg 68%
    17:00 +4°C° 0 mm 3 mps 758 mmHg 70%
    18:00 +4°C° 0 mm 3 mps 758 mmHg 72%
    19:00 +4°C° 0 mm 2 mps 758 mmHg 73%
    20:00 +4°C° 0 mm 2 mps 758 mmHg 75%
    21:00 +4°C° 0 mm 2 mps 758 mmHg 76%
    22:00 +4°C° 0.1 mm 2 mps 758 mmHg 76%
    23:00 +4°C° 0.1 mm 2 mps 758 mmHg 76%

    Day after tomorrow, 25 November, Saturday

    Time Temperature Precipitation Wind Pressure Humidity
    00:00 +5°C° 0.1 mm 2 mps 757 mmHg 76%
    01:00 +5°C° 0.6 mm 2 mps 757 mmHg 77%
    02:00 +3°C° 0.6 mm 3 mps 757 mmHg 78%
    03:00 +3°C° 0.6 mm 3 mps 757 mmHg 79%
    04:00 +3°C° 0.6 mm 4 mps 757 mmHg 79%
    05:00 +3°C° 0.6 mm 4 mps 757 mmHg 78%
    06:00 +3°C° 0.6 mm 4 mps 757 mmHg 77%
    07:00 +2°C° 0 mm 5 mps 758 mmHg 75%
    08:00 +2°C° 0 mm 5 mps 758 mmHg 74%
    09:00 +2°C° 0 mm 6 mps 759 mmHg 72%
    10:00 +2°C° 0 mm 6 mps 759 mmHg 68%
    11:00 +3°C° 0 mm 7 mps 760 mmHg 65%
    12:00 +4°C° 0 mm 8 mps 760 mmHg 61%
    13:00 +3°C° 0 mm 7 mps 760 mmHg 63%
    14:00 +3°C° 0 mm 7 mps 761 mmHg 64%
    15:00 +3°C° 0 mm 7 mps 761 mmHg 65%
    16:00 +3°C° 0 mm 7 mps 761 mmHg 66%
    17:00 +2°C° 0 mm 7 mps 761 mmHg 68%
    18:00 0°C° 0 mm 7 mps 762 mmHg 69%
    19:00 0°C° 0 mm 7 mps 762 mmHg 69%
    20:00 0°C° 0 mm 7 mps 762 mmHg 69%
    21:00 0°C° 0 mm 7 mps 763 mmHg 69%
    22:00 0°C° 0 mm 7 mps 763 mmHg 70%
    23:00 0°C° 0 mm 7 mps 763 mmHg 70%

    26 November, Sunday

    Time Temperature Precipitation Wind Pressure Humidity
    00:00 -1°C° 0 mm 8 mps 764 mmHg 70%
    01:00 -1°C° 0 mm 8 mps 764 mmHg 71%
    02:00 -1°C° 0 mm 8 mps 764 mmHg 71%
    03:00 -1°C° 0 mm 8 mps 764 mmHg 72%
    04:00 -1°C° 0 mm 8 mps 764 mmHg 72%
    05:00 -1°C° 0 mm 8 mps 764 mmHg 73%
    06:00 -1°C° 0 mm 8 mps 764 mmHg 74%
    07:00 0°C° 0 mm 8 mps 764 mmHg 73%
    08:00 0°C° 0 mm 8 mps 765 mmHg 73%
    09:00 +1°C° 0 mm 8 mps 765 mmHg 72%
    10:00 +2°C° 0 mm 8 mps 765 mmHg 70%
    11:00 +2°C° 0 mm 8 mps 765 mmHg 67%
    12:00 +4°C° 0 mm 8 mps 765 mmHg 65%
    13:00 +4°C° 0 mm 8 mps 765 mmHg 66%
    14:00 +4°C° 0 mm 7 mps 765 mmHg 68%
    15:00 +4°C° 0 mm 7 mps 765 mmHg 69%
    16:00 +3°C° 0 mm 7 mps 765 mmHg 71%
    17:00 +3°C° 0 mm 7 mps 765 mmHg 72%
    18:00 +3°C° 0 mm 7 mps 765 mmHg 74%
    19:00 +2°C° 0 mm 7 mps 766 mmHg 75%
    20:00 +2°C° 0 mm 6 mps 766 mmHg 77%
    21:00 +2°C° 0 mm 6 mps 766 mmHg 79%
    22:00 +1°C° 0 mm 6 mps 766 mmHg 79%
    23:00 +1°C° 0 mm 6 mps 765 mmHg 79%

    27 November, Monday

    Time Temperature Precipitation Wind Pressure Humidity
    00:00 +1°C° 0 mm 6 mps 765 mmHg 80%
    01:00 +1°C° 0 mm 6 mps 765 mmHg 79%
    02:00 +1°C° 0 mm 5 mps 765 mmHg 79%
    03:00 +2°C° 0 mm 5 mps 764 mmHg 78%
    04:00 +2°C° 0 mm 6 mps 764 mmHg 79%
    05:00 +3°C° 0 mm 7 mps 763 mmHg 79%
    06:00 +4°C° 0 mm 8 mps 763 mmHg 79%
    07:00 +5°C° 0.3 mm 8 mps 762 mmHg 81%
    08:00 +5°C° 0.3 mm 9 mps 762 mmHg 82%
    09:00 +6°C° 0.3 mm 10 mps 761 mmHg 83%
    10:00 +6°C° 0.8 mm 11 mps 761 mmHg 83%
    11:00 +7°C° 0.8 mm 11 mps 760 mmHg 82%
    12:00 +7°C° 0.8 mm 11 mps 760 mmHg 81%
    13:00 +7°C° 0.3 mm 10 mps 759 mmHg 78%
    14:00 +6°C° 0.3 mm 9 mps 759 mmHg 76%
    15:00 +6°C° 0.3 mm 8 mps 759 mmHg 73%
    16:00 +5°C° 0 mm 8 mps 759 mmHg 75%
    17:00 +5°C° 0 mm 7 mps 759 mmHg 77%
    18:00 +4°C° 0 mm 7 mps 759 mmHg 78%
    19:00 +4°C° 0 mm 7 mps 758 mmHg 79%
    20:00 +4°C° 0 mm 7 mps 758 mmHg 79%
    21:00 +4°C° 0 mm 6 mps 758 mmHg 80%
    22:00 +4°C° 0.1 mm 7 mps 757 mmHg 80%
    23:00 +5°C° 0.1 mm 7 mps 757 mmHg 81%

    28 November, Tuesday

    Time Temperature Precipitation Wind Pressure Humidity
    00:00 +5°C° 0.1 mm 7 mps 756 mmHg 82%
    01:00 +5°C° 0.4 mm 7 mps 755 mmHg 83%
    02:00 +5°C° 0.4 mm 8 mps 754 mmHg 84%
    03:00 +5°C° 0.4 mm 8 mps 753 mmHg 85%
    04:00 +6°C° 0.6 mm 9 mps 752 mmHg 83%
    05:00 +6°C° 0.6 mm 10 mps 751 mmHg 81%
    06:00 +6°C° 0.6 mm 10 mps 751 mmHg 80%
    07:00 +5°C° 0.1 mm 10 mps 750 mmHg 79%
    08:00 +5°C° 0.1 mm 10 mps 750 mmHg 78%
    09:00 +3°C° 0.1 mm 9 mps 750 mmHg 78%
    10:00 +5°C° 0 mm 9 mps 750 mmHg 76%
    11:00 +6°C° 0 mm 8 mps 750 mmHg 74%
    12:00 +6°C° 0 mm 8 mps 750 mmHg 73%
    13:00 +6°C° 0.1 mm 7 mps 750 mmHg 74%
    14:00 +5°C° 0.1 mm 6 mps 750 mmHg 75%
    15:00 +6°C° 0.1 mm 5 mps 750 mmHg 76%
    16:00 +5°C° 0 mm 5 mps 750 mmHg 78%
    17:00 +5°C° 0 mm 5 mps 750 mmHg 80%
    18:00 +4°C° 0 mm 4 mps 750 mmHg 83%
    19:00 +3°C° 0 mm 4 mps 751 mmHg 83%
    20:00 +3°C° 0 mm 4 mps 751 mmHg 83%
    21:00 +3°C° 0 mm 4 mps 751 mmHg 84%
    22:00 +1°C° 0.1 mm 5 mps 751 mmHg 85%
    23:00 +1°C° 0.1 mm 5 mps 750 mmHg 87%
    Show more